Location: Brodeslavy
(49.9527°N, 13.5567°E)
Time: 21:18:12
(UTC+00:00)

Cosmos 1633 Rocket - Pass Details

Date: 17 June 2025
Orbit: 601 x 617 km, 82.5° (Epoch: 16 July)

Event Time Altitude Azimuth Distance (km) Brightness Sun altitude
Rises 19:58:02 0° 347° (NNW) 2,865 7.7 -5.6°
Reaches altitude 10° 20:00:16 10° 344° (NNW) 1,957 6.8 -5.8°
Maximum altitude 20:04:32 62° 264° (W) 684 3.5 -6.3°
Drops below altitude 10° 20:08:46 10° 184° (S) 1,944 5.2 -6.7°
Enters shadow 20:10:45 - 181° (S) 2,750 5.9 -6.9°
